BAW695 LGIR-EGLL

Flight info

Callsign BAW695
Flight time N/A
Altitude 36000
Route EPALO M749 DIRMI UL613 KOR DCT VJOSA DCT PAPIZ DCT CRAYE DCT GISAM DCT SAL DCT LOS DCT RASUG DCT SOTOV DCT XEBIX DCT USUDO DCT LIRSU DCT SPI DCT BUB L608 LOGAN
Aircraft A321/M-SDE3FGHIRWY/LB1

Departure

Time 2026-05-06 17:04
Airport Heraklion International Nikos Kazantzakis Airport (LGIR)

Arrival

Time N/A
Airport London Heathrow Airport (EGLL)
Time Latitude Longitude Altitude Speed Heading
2026-05-06 16:43 35.33806 25.17422 84 ft 0 kts 274°
2026-05-06 16:54 35.33807 25.17426 84 ft 4 kts 301°
2026-05-06 16:54 35.33813 25.17424 87 ft 4 kts 327°
2026-05-06 16:54 35.33801 25.17442 89 ft 4 kts 285°
2026-05-06 16:54 35.33796 25.17461 88 ft 4 kts 294°
2026-05-06 16:55 35.33783 25.17487 88 ft 4 kts 333°
2026-05-06 16:55 35.33770 25.17491 87 ft 0 kts
2026-05-06 16:58 35.33791 25.17494 86 ft 6 kts
2026-05-06 16:58 35.33837 25.17499 85 ft 10 kts
2026-05-06 16:58 35.33910 25.17531 90 ft 10 kts 61°
2026-05-06 16:58 35.33902 25.17617 86 ft 13 kts 90°
2026-05-06 16:59 35.33895 25.17746 89 ft 18 kts 95°
2026-05-06 16:59 35.33884 25.17893 87 ft 17 kts 95°
2026-05-06 16:59 35.33877 25.18019 88 ft 10 kts 94°
2026-05-06 16:59 35.33873 25.18086 90 ft 5 kts 94°
2026-05-06 17:00 35.33871 25.18109 92 ft 0 kts 95°
2026-05-06 17:00 35.33871 25.18113 92 ft 2 kts 95°
2026-05-06 17:00 35.33867 25.18161 96 ft 9 kts 95°
2026-05-06 17:01 35.33859 25.18258 95 ft 14 kts 96°
2026-05-06 17:01 35.33847 25.18424 88 ft 24 kts 94°
2026-05-06 17:01 35.33834 25.18631 87 ft 23 kts 94°
2026-05-06 17:01 35.33820 25.18821 89 ft 22 kts 95°
2026-05-06 17:02 35.33826 25.18945 94 ft 13 kts 63°
2026-05-06 17:02 35.33861 25.19005 97 ft 6 kts 54°
2026-05-06 17:02 35.33895 25.19034 100 ft 7 kts 348°
2026-05-06 17:02 35.33906 25.18980 100 ft 10 kts 266°
2026-05-06 17:03 35.33918 25.18850 98 ft 25 kts 274°
2026-05-06 17:03 35.33956 25.18309 96 ft 97 kts 275°
2026-05-06 17:03 35.34028 25.17251 89 ft 150 kts 275°
2026-05-06 17:03 35.34118 25.15832 286 ft 172 kts 275°
2026-05-06 17:04 35.34305 25.14592 883 ft 169 kts 299°
2026-05-06 17:04 35.35195 25.13733 1424 ft 171 kts 343°
2026-05-06 17:04 35.36305 25.13401 1664 ft 188 kts 346°
2026-05-06 17:04 35.37604 25.13047 1832 ft 208 kts 346°
2026-05-06 17:05 35.39075 25.12629 1971 ft 230 kts 346°
2026-05-06 17:05 35.40699 25.12134 2266 ft 250 kts 345°
2026-05-06 17:05 35.42344 25.11601 2848 ft 258 kts 344°
2026-05-06 17:05 35.44080 25.11015 3635 ft 260 kts 343°
2026-05-06 17:06 35.45829 25.10404 4441 ft 263 kts 343°
2026-05-06 17:06 35.47569 25.09784 5204 ft 266 kts 343°
2026-05-06 17:06 35.49282 25.09167 5926 ft 268 kts 343°
2026-05-06 17:06 35.51082 25.08513 6692 ft 270 kts 344°
2026-05-06 17:07 35.52888 25.07854 7422 ft 272 kts 344°
2026-05-06 17:07 35.54711 25.07189 8137 ft 275 kts 344°
2026-05-06 17:07 35.56553 25.06518 8869 ft 277 kts 344°
2026-05-06 17:07 35.57554 25.06153 9264 ft 278 kts 344°
2026-05-06 17:08 35.57784 25.06069 9326 ft 278 kts 343°
2026-05-06 17:08 35.59743 25.05353 10099 ft 281 kts 343°
2026-05-06 17:08 35.61635 25.04662 10499 ft 295 kts 343°
2026-05-06 17:09 35.63672 25.03917 10621 ft 316 kts 343°
2026-05-06 17:09 35.65840 25.03126 10910 ft 331 kts 343°
2026-05-06 17:09 35.68068 25.02311 11486 ft 335 kts 343°
2026-05-06 17:09 35.70285 25.01498 12123 ft 338 kts 343°
2026-05-06 17:10 35.72544 25.00637 12755 ft 341 kts 340°
2026-05-06 17:10 35.74789 24.99651 13392 ft 343 kts 338°
2026-05-06 17:10 35.77022 24.98587 14032 ft 346 kts 337°
2026-05-06 17:10 35.79266 24.97488 14611 ft 348 kts 337°
2026-05-06 17:11 35.81520 24.96382 15195 ft 350 kts 337°
2026-05-06 17:11 35.83799 24.95276 15752 ft 353 kts 337°
2026-05-06 17:11 35.85939 24.94251 16282 ft 355 kts 337°
2026-05-06 17:11 35.88240 24.93161 16845 ft 357 kts 337°
2026-05-06 17:12 35.90562 24.92069 17399 ft 360 kts 337°
2026-05-06 17:12 35.92829 24.91008 17926 ft 362 kts 337°
2026-05-06 17:12 35.95197 24.89901 18453 ft 365 kts 337°
2026-05-06 17:12 35.97517 24.88811 18907 ft 367 kts 337°
2026-05-06 17:13 35.99895 24.87689 19364 ft 369 kts 337°
2026-05-06 17:13 36.02303 24.86551 19798 ft 372 kts 338°
2026-05-06 17:13 36.04709 24.85347 20223 ft 374 kts 333°
2026-05-06 17:13 36.06932 24.83678 20644 ft 375 kts 322°
2026-05-06 17:14 36.08971 24.81658 21068 ft 377 kts 321°
2026-05-06 17:14 36.11026 24.79613 21492 ft 380 kts 321°
2026-05-06 17:14 36.13097 24.77557 21913 ft 383 kts 321°
2026-05-06 17:14 36.15156 24.75518 22334 ft 385 kts 321°
2026-05-06 17:15 36.17283 24.73411 22760 ft 388 kts 321°
2026-05-06 17:15 36.19392 24.71317 23163 ft 390 kts 321°
2026-05-06 17:15 36.21516 24.69204 23562 ft 393 kts 321°
2026-05-06 17:15 36.23627 24.67104 23904 ft 395 kts 321°
2026-05-06 17:16 36.25807 24.64935 24261 ft 397 kts 321°
2026-05-06 17:16 36.27934 24.62818 24615 ft 398 kts 321°
2026-05-06 17:16 36.30098 24.60661 24964 ft 400 kts 321°
2026-05-06 17:16 36.32272 24.58491 25302 ft 402 kts 321°
2026-05-06 17:17 36.34450 24.56315 25634 ft 404 kts 321°
2026-05-06 17:17 36.36642 24.54124 25974 ft 405 kts 321°
2026-05-06 17:17 36.38728 24.52037 26289 ft 407 kts 321°
2026-05-06 17:17 36.40931 24.49831 26616 ft 409 kts 320°
2026-05-06 17:18 36.43148 24.47612 26940 ft 410 kts 320°
2026-05-06 17:18 36.45372 24.45384 27255 ft 412 kts 320°
2026-05-06 17:18 36.47609 24.43146 27569 ft 414 kts 320°
2026-05-06 17:18 36.49852 24.40898 27874 ft 416 kts 320°
2026-05-06 17:19 36.52111 24.38636 28192 ft 417 kts 320°
2026-05-06 17:19 36.54372 24.36367 28475 ft 419 kts 320°
2026-05-06 17:19 36.56642 24.34081 28771 ft 421 kts 320°
2026-05-06 17:19 36.58924 24.31778 29052 ft 422 kts 320°
2026-05-06 17:20 36.61179 24.29504 29330 ft 424 kts 320°
2026-05-06 17:20 36.63472 24.27189 29600 ft 425 kts 320°
2026-05-06 17:20 36.65767 24.24867 29866 ft 427 kts 320°
2026-05-06 17:20 36.68082 24.22527 30132 ft 429 kts 320°
2026-05-06 17:21 36.70400 24.20185 30365 ft 430 kts 320°
2026-05-06 17:21 36.72723 24.17837 30669 ft 430 kts 320°
2026-05-06 17:21 36.75039 24.15493 31015 ft 428 kts 320°
2026-05-06 17:21 36.77344 24.13155 31361 ft 427 kts 319°
2026-05-06 17:22 36.79647 24.10817 31705 ft 426 kts 319°
2026-05-06 17:22 36.81937 24.08493 32067 ft 424 kts 319°
2026-05-06 17:22 36.84230 24.06169 32446 ft 422 kts 319°
2026-05-06 17:22 36.86474 24.03897 32775 ft 422 kts 319°
2026-05-06 17:23 36.88746 24.01586 33120 ft 421 kts 319°
2026-05-06 17:23 36.91047 23.99241 33461 ft 420 kts 319°
2026-05-06 17:23 36.93305 23.96938 33799 ft 419 kts 319°
2026-05-06 17:23 36.95552 23.94644 34125 ft 418 kts 319°
2026-05-06 17:24 36.97778 23.92376 34393 ft 417 kts 319°
2026-05-06 17:24 37.00051 23.90064 34647 ft 417 kts 319°
2026-05-06 17:24 37.02277 23.87802 34878 ft 417 kts 319°
2026-05-06 17:24 37.04521 23.85517 35100 ft 417 kts 319°
2026-05-06 17:25 37.06774 23.83217 35332 ft 417 kts 319°
2026-05-06 17:25 37.09054 23.80885 35554 ft 417 kts 319°
2026-05-06 17:25 37.11299 23.78580 35791 ft 417 kts 319°
2026-05-06 17:25 37.13545 23.76269 36019 ft 418 kts 319°
2026-05-06 17:26 37.15779 23.73971 36062 ft 416 kts 319°
2026-05-06 17:26 37.20230 23.69397 36067 ft 416 kts 319°
2026-05-06 17:27 37.24709 23.64798 36074 ft 416 kts 319°
2026-05-06 17:27 37.29187 23.60192 36071 ft 416 kts 319°
2026-05-06 17:28 37.33654 23.55581 36064 ft 416 kts 319°
2026-05-06 17:28 37.38121 23.50960 36074 ft 416 kts 319°
2026-05-06 17:29 37.42598 23.46331 36087 ft 416 kts 319°
2026-05-06 17:29 37.47058 23.41708 36083 ft 416 kts 319°
2026-05-06 17:30 37.51519 23.37069 36081 ft 416 kts 319°
2026-05-06 17:30 37.55979 23.32430 36082 ft 416 kts 319°
2026-05-06 17:31 37.60446 23.27778 36081 ft 416 kts 319°
2026-05-06 17:31 37.64898 23.23128 36079 ft 416 kts 319°
2026-05-06 17:32 37.69305 23.18528 36087 ft 416 kts 319°
2026-05-06 17:32 37.73748 23.13878 36082 ft 416 kts 319°
2026-05-06 17:33 37.78235 23.09172 36082 ft 416 kts 318°
2026-05-06 17:33 37.82691 23.04493 36080 ft 417 kts 318°
2026-05-06 17:34 37.87115 22.99837 36077 ft 416 kts 318°
2026-05-06 17:34 37.91570 22.95145 36076 ft 416 kts 318°
2026-05-06 17:35 37.95939 22.90341 36085 ft 416 kts 315°
2026-05-06 17:35 38.00134 22.85291 36084 ft 415 kts 314°
2026-05-06 17:36 38.06380 22.77672 36077 ft 415 kts 315°
2026-05-06 17:36 38.10562 22.72664 36073 ft 416 kts 315°
2026-05-06 17:37 38.14778 22.67634 36071 ft 416 kts 315°
2026-05-06 17:37 38.18989 22.62590 36073 ft 416 kts 315°
2026-05-06 17:38 38.22504 22.58362 36082 ft 416 kts 315°
2026-05-06 17:38 38.26696 22.53318 36092 ft 416 kts 315°
2026-05-06 17:39 38.30897 22.48250 36093 ft 415 kts 315°
2026-05-06 17:39 38.35061 22.43217 36092 ft 415 kts 315°
2026-05-06 17:40 38.39244 22.38145 36087 ft 415 kts 315°
2026-05-06 17:40 38.43419 22.33073 36086 ft 415 kts 315°
2026-05-06 17:41 38.47602 22.27999 36094 ft 415 kts 315°
2026-05-06 17:41 38.51731 22.22989 36091 ft 415 kts 315°
2026-05-06 17:42 38.55913 22.17895 36098 ft 415 kts 314°
2026-05-06 17:42 38.60072 22.12817 36092 ft 415 kts 314°
2026-05-06 17:43 38.64245 22.07710 36091 ft 415 kts 314°
2026-05-06 17:43 38.68417 22.02600 36089 ft 415 kts 314°
2026-05-06 17:44 38.72565 21.97519 36095 ft 416 kts 314°
2026-05-06 17:44 38.76738 21.92382 36098 ft 416 kts 314°
2026-05-06 17:45 38.80913 21.87242 36107 ft 416 kts 314°
2026-05-06 17:45 38.85091 21.82099 36102 ft 416 kts 314°
2026-05-06 17:46 38.89254 21.76948 36100 ft 416 kts 314°
2026-05-06 17:46 38.93394 21.71825 36099 ft 416 kts 314°
2026-05-06 17:47 38.97564 21.66670 36096 ft 416 kts 314°
2026-05-06 17:47 39.01733 21.61493 36097 ft 417 kts 314°
2026-05-06 17:48 39.05896 21.56311 36093 ft 417 kts 314°
2026-05-06 17:48 39.10062 21.51119 36112 ft 417 kts 314°
2026-05-06 17:49 39.14223 21.45929 36114 ft 416 kts 314°
2026-05-06 17:49 39.18382 21.40731 36112 ft 416 kts 314°
2026-05-06 17:50 39.22527 21.35539 36118 ft 415 kts 314°
2026-05-06 17:50 39.26639 21.30371 36112 ft 415 kts 314°
2026-05-06 17:51 39.30774 21.25171 36118 ft 415 kts 314°
2026-05-06 17:51 39.34901 21.19973 36117 ft 415 kts 314°
2026-05-06 17:52 39.39030 21.14768 36129 ft 414 kts 314°
2026-05-06 17:52 39.43150 21.09577 36130 ft 413 kts 314°
2026-05-06 17:53 39.47252 21.04380 36132 ft 412 kts 314°
2026-05-06 17:53 39.51353 20.99188 36118 ft 412 kts 314°
2026-05-06 17:54 39.55444 20.93992 36117 ft 412 kts 314°
2026-05-06 17:54 39.59525 20.88787 36116 ft 411 kts 314°
2026-05-06 17:55 39.63605 20.83600 36117 ft 411 kts 314°
2026-05-06 17:55 39.67680 20.78390 36128 ft 411 kts 314°
2026-05-06 17:56 39.71751 20.73197 36132 ft 409 kts 314°
2026-05-06 17:56 39.75805 20.68015 36127 ft 408 kts 314°
2026-05-06 17:57 39.79811 20.62864 36123 ft 408 kts 314°
2026-05-06 17:57 39.83838 20.57683 36107 ft 407 kts 314°
2026-05-06 17:58 39.87864 20.52500 36107 ft 407 kts 314°
2026-05-06 17:58 39.91886 20.47297 36106 ft 407 kts 314°
2026-05-06 17:59 39.95878 20.42135 36108 ft 407 kts 314°
2026-05-06 17:59 39.99751 20.36747 36104 ft 405 kts 309°
2026-05-06 18:00 40.03167 20.31448 36096 ft 405 kts 309°
2026-05-06 18:00 40.06793 20.25823 36092 ft 405 kts 308°
2026-05-06 18:01 40.10413 20.20195 36088 ft 405 kts 309°
2026-05-06 18:01 40.14038 20.14555 36085 ft 405 kts 309°
2026-05-06 18:02 40.17651 20.08915 36088 ft 404 kts 309°
2026-05-06 18:02 40.21231 20.03311 36081 ft 404 kts 309°
2026-05-06 18:03 40.24834 19.97664 36099 ft 404 kts 309°
2026-05-06 18:03 40.28437 19.92018 36087 ft 404 kts 309°
2026-05-06 18:04 40.32038 19.86374 36079 ft 404 kts 309°
2026-05-06 18:04 40.35604 19.80770 36073 ft 403 kts 308°
2026-05-06 18:05 40.39163 19.75150 36093 ft 402 kts 308°
2026-05-06 18:05 40.42728 19.69512 36088 ft 401 kts 308°
2026-05-06 18:06 40.46287 19.63885 36083 ft 400 kts 308°
2026-05-06 18:06 40.49834 19.58265 36079 ft 400 kts 308°
2026-05-06 18:07 40.53373 19.52633 36081 ft 399 kts 308°
2026-05-06 18:07 40.56907 19.47002 36082 ft 398 kts 308°
2026-05-06 18:08 40.60426 19.41390 36073 ft 398 kts 307°
2026-05-06 18:08 40.63930 19.35799 36070 ft 398 kts 307°
2026-05-06 18:09 40.67345 19.30332 36059 ft 398 kts 307°
2026-05-06 18:09 40.70847 19.24705 36058 ft 398 kts 307°
2026-05-06 18:10 40.73416 19.20582 36072 ft 398 kts 307°
2026-05-06 18:10 40.76865 19.15036 36058 ft 399 kts 307°
2026-05-06 18:11 40.79448 19.10877 36070 ft 399 kts 306°
2026-05-06 18:11 40.82934 19.05256 36062 ft 400 kts 306°
2026-05-06 18:12 40.85314 19.01412 36066 ft 400 kts 306°
2026-05-06 18:12 40.88822 18.95740 36060 ft 401 kts 308°
2026-05-06 18:13 40.92716 18.90458 36063 ft 403 kts 311°
2026-05-06 18:13 40.96648 18.85241 36065 ft 403 kts 311°
2026-05-06 18:14 41.00593 18.79990 36061 ft 403 kts 311°
2026-05-06 18:14 41.04543 18.74705 36073 ft 403 kts 310°
2026-05-06 18:15 41.08485 18.69419 36077 ft 403 kts 311°
2026-05-06 18:15 41.12434 18.64134 36074 ft 404 kts 311°
2026-05-06 18:16 41.16362 18.58871 36073 ft 404 kts 311°
2026-05-06 18:16 41.20334 18.53543 36063 ft 404 kts 311°
2026-05-06 18:17 41.24282 18.48236 36060 ft 404 kts 310°
2026-05-06 18:17 41.28194 18.42950 36069 ft 404 kts 310°
2026-05-06 18:18 41.32125 18.37627 36069 ft 403 kts 310°
2026-05-06 18:18 41.36017 18.32341 36066 ft 403 kts 310°
2026-05-06 18:19 41.39930 18.27033 36064 ft 403 kts 310°
2026-05-06 18:19 41.43818 18.21749 36062 ft 403 kts 310°
2026-05-06 18:20 41.47722 18.16416 36058 ft 402 kts 310°
2026-05-06 18:20 41.51900 18.11469 36049 ft 409 kts 321°
2026-05-06 18:21 41.56653 18.07292 36044 ft 409 kts 321°
2026-05-06 18:21 41.60678 18.03727 36055 ft 409 kts 321°
2026-05-06 18:22 41.65264 17.99646 36045 ft 410 kts 321°
2026-05-06 18:22 41.69795 17.95601 36035 ft 410 kts 321°
2026-05-06 18:23 41.73901 17.91937 36035 ft 410 kts 321°
2026-05-06 18:23 41.78322 17.87991 36031 ft 410 kts 321°
2026-05-06 18:24 41.82741 17.84037 36038 ft 410 kts 321°
2026-05-06 18:24 41.87418 17.79856 36039 ft 410 kts 321°
2026-05-06 18:25 41.92074 17.75570 36041 ft 406 kts 315°
2026-05-06 18:25 41.96226 17.70497 36033 ft 404 kts 312°
2026-05-06 18:26 42.00386 17.65395 36027 ft 405 kts 312°
2026-05-06 18:26 42.04519 17.60331 36022 ft 405 kts 312°
2026-05-06 18:27 42.08673 17.55210 36039 ft 405 kts 312°
2026-05-06 18:27 42.12822 17.50088 36039 ft 404 kts 312°
2026-05-06 18:28 42.16965 17.44959 36031 ft 404 kts 312°
2026-05-06 18:28 42.21093 17.39845 36029 ft 404 kts 312°
2026-05-06 18:29 42.25202 17.34744 36023 ft 404 kts 311°
2026-05-06 18:29 42.29326 17.29604 36011 ft 405 kts 311°
2026-05-06 18:30 42.33463 17.24454 36027 ft 405 kts 311°
2026-05-06 18:30 42.37507 17.19420 36029 ft 405 kts 311°
2026-05-06 18:31 42.41552 17.14365 36021 ft 405 kts 311°
2026-05-06 18:31 42.45646 17.09239 36018 ft 405 kts 311°
2026-05-06 18:32 42.49765 17.04063 36023 ft 405 kts 310°
2026-05-06 18:32 42.53898 16.98855 36005 ft 405 kts 310°
2026-05-06 18:33 42.58003 16.93683 36014 ft 406 kts 310°
2026-05-06 18:33 42.62144 16.88450 36005 ft 406 kts 310°
2026-05-06 18:34 42.66283 16.83226 36007 ft 407 kts 310°
2026-05-06 18:34 42.70230 16.78224 36008 ft 407 kts 310°
2026-05-06 18:35 42.71052 16.77181 36008 ft 407 kts 310°
2026-05-06 18:35 42.75165 16.71952 36003 ft 407 kts 310°
2026-05-06 18:36 42.79275 16.66726 36015 ft 407 kts 310°
2026-05-06 18:36 42.83409 16.61454 36017 ft 407 kts 310°
2026-05-06 18:37 42.86835 16.57073 36017 ft 407 kts 309°
2026-05-06 18:37 42.91651 16.50909 36012 ft 406 kts 310°
2026-05-06 18:38 42.95777 16.45624 36009 ft 406 kts 310°
2026-05-06 18:38 42.99869 16.40366 36009 ft 406 kts 309°
2026-05-06 18:39 43.03983 16.35068 36009 ft 406 kts 309°
2026-05-06 18:40 43.10149 16.27098 35997 ft 408 kts 309°
2026-05-06 18:40 43.14276 16.21758 36002 ft 409 kts 309°
2026-05-06 18:41 43.18406 16.16408 35994 ft 409 kts 309°
2026-05-06 18:41 43.22520 16.11081 35991 ft 409 kts 309°
2026-05-06 18:42 43.26653 16.05705 35990 ft 409 kts 309°
2026-05-06 18:42 43.30777 16.00315 36005 ft 410 kts 309°
2026-05-06 18:43 43.34910 15.94908 36015 ft 411 kts 309°
2026-05-06 18:43 43.39053 15.89489 35990 ft 411 kts 309°
2026-05-06 18:44 43.43202 15.84063 35984 ft 412 kts 309°
2026-05-06 18:44 43.47348 15.78615 35984 ft 412 kts 309°
2026-05-06 18:45 43.51494 15.73159 35980 ft 413 kts 309°
2026-05-06 18:45 43.55610 15.67723 35996 ft 413 kts 309°
2026-05-06 18:46 43.59761 15.62232 36003 ft 413 kts 309°
2026-05-06 18:46 43.63906 15.56726 35989 ft 415 kts 309°
2026-05-06 18:47 43.68066 15.51198 35978 ft 415 kts 309°
2026-05-06 18:47 43.72232 15.45659 35979 ft 416 kts 309°
2026-05-06 18:48 43.76382 15.40138 35990 ft 417 kts 309°
2026-05-06 18:48 43.80553 15.34576 35986 ft 417 kts 309°
2026-05-06 18:49 43.84723 15.28986 35989 ft 417 kts 308°
2026-05-06 18:49 43.88892 15.23395 35991 ft 418 kts 308°
2026-05-06 18:50 43.93057 15.17796 35980 ft 418 kts 308°
2026-05-06 18:50 43.97363 15.12369 35981 ft 423 kts 312°
2026-05-06 18:51 44.01925 15.07179 35989 ft 424 kts 313°
2026-05-06 18:51 44.06505 15.01997 35987 ft 423 kts 313°
2026-05-06 18:52 44.10985 14.96785 35999 ft 423 kts 312°
2026-05-06 18:52 44.15474 14.91481 35971 ft 424 kts 312°
2026-05-06 18:53 44.19976 14.86144 35969 ft 425 kts 312°
2026-05-06 18:53 44.24472 14.80838 35970 ft 426 kts 312°
2026-05-06 18:54 44.28984 14.75507 35969 ft 427 kts 313°
2026-05-06 18:54 44.33513 14.70149 35969 ft 427 kts 313°
2026-05-06 18:55 44.38043 14.64779 35968 ft 427 kts 312°
2026-05-06 18:55 44.42547 14.59427 35972 ft 427 kts 312°
2026-05-06 18:56 44.47000 14.54118 35983 ft 427 kts 313°
2026-05-06 18:56 44.50766 14.49621 35982 ft 428 kts 313°
2026-05-06 18:57 44.55239 14.44157 36000 ft 426 kts 311°
2026-05-06 18:57 44.59563 14.38478 35973 ft 426 kts 310°
2026-05-06 18:58 44.64491 14.31890 35964 ft 427 kts 310°
2026-05-06 18:58 44.68119 14.27100 35965 ft 428 kts 310°
2026-05-06 18:59 44.72446 14.21424 35956 ft 428 kts 311°
2026-05-06 18:59 44.76800 14.15700 36004 ft 429 kts 310°
2026-05-06 19:00 44.81154 14.09954 35985 ft 429 kts 310°
2026-05-06 19:00 44.85500 14.04193 35989 ft 429 kts 310°
2026-05-06 19:01 44.89816 13.98471 35989 ft 429 kts 310°
2026-05-06 19:01 44.94156 13.92700 35990 ft 429 kts 310°
2026-05-06 19:02 44.98486 13.86916 36019 ft 429 kts 309°
2026-05-06 19:02 45.02819 13.81126 35990 ft 428 kts 309°
2026-05-06 19:03 45.07147 13.75342 35967 ft 428 kts 309°
2026-05-06 19:03 45.11448 13.69591 35962 ft 428 kts 309°
2026-05-06 19:04 45.15762 13.63793 35954 ft 428 kts 309°
2026-05-06 19:04 45.20052 13.57994 35977 ft 428 kts 309°
2026-05-06 19:05 45.24363 13.52173 35949 ft 429 kts 309°
2026-05-06 19:05 45.28689 13.46333 35942 ft 429 kts 309°
2026-05-06 19:06 45.32687 13.40918 35935 ft 430 kts 309°